Location: Bavegemberg
(50.9500°N, 3.8833°E)
Time: 02:06:56
(UTC+00:00)

Cosmos 1455 - Pass Details

Date: 23 May 2024
Orbit: 445 x 460 km, 82.5° (Epoch: 16 June)

Event Time Altitude Azimuth Distance (km) Brightness Sun altitude
Rises 00:24:33 0° 358° (N) 2,462 7.2 -17.8°
Reaches altitude 10° 00:26:51 10° 12° (NNE) 1,586 6.0 -17.7°
Maximum altitude 00:29:50 27° 71° (ENE) 908 3.7 -17.6°
Enters shadow 00:31:55 15° 121° (ESE) 1,282 4.0 -17.5°
